カタログに戻る

COSMOS 507

運用中軍事LEO
NORAD 6120·PAYLOAD·🇷🇺 Russia

打ち上げ Jul 20, 1972 から Plesetsk Cosmodrome

Loading…

次のパス (今後24時間)

TLE

最新Source: Space-Track

元期: Sep 14, 2026, 06:42 UTC

1 06120U 72057D   26257.27978225 -.00000022  00000-0 -37459-4 0  9992
2 06120  74.0244  88.7698 0053596 112.3181 358.5336 12.52658051476110

AllMySatでCOSMOS 507をリアルタイム追跡

Download on the App Store